Weather History for KBHM - December, 2013

Change the Weather History Date:

Monday, December 2, 2013

  Actual Average Record
Temperature  
Mean Temperature 53 °F 49 °F  
Max Temperature 56 °F 59 °F 76 °F (1982)
Min Temperature 49 °F 39 °F 20 °F (1960)
Degree Days  
Heating Degree Days 12 16  
Month to date heating degree days 29 32  
Since 1 July heating degree days 557 490  
Growing Degree Days 2 (Base 50)    
Moisture  
Dew Point 49 °F    
Average Humidity 76    
Maximum Humidity 93    
Minimum Humidity 59    
Precipitation  
Precipitation 0.21 in 0.17 in 2.45 in (1983)
Month to date precipitation 0.21 0.33  
Year to date precipitation 61.02 49.60  
Snow  
Snow 0.00 in 0.00 in - ()
Month to date snowfall 0.0 0.0  
Since 1 July snowfall 0.0 0.0  
Snow Depth 0.00 in    
Sea Level Pressure  
Sea Level Pressure 29.91 in    
Wind  
Wind Speed 2 mph (SSE)    
Max Wind Speed 13 mph    
Max Gust Speed 15 mph    
Visibility 7 miles    
Events Rain    
T = Trace of Precipitation, MM = Missing Value Source: NWS Daily Summary

Daily Weather History Graph

Daily Weather History Graph

Search for Another Location

Airport or City:

Trip Planner

Search our weather history database for the weather conditions in past years. The results will help you decide how hot, cold, wet, or windy it might be!

Date:

Astronomy

Dec. 02, 2013 Rise Set
Actual Time 6:34 AM CST 4:38 PM CST
Civil Twilight 6:07 AM CST 5:05 PM CST
Nautical Twilight 5:36 AM CST 5:36 PM CST
Astronomical Twilight 5:06 AM CST 6:06 PM CST
Moon 6:00 AM CST (12/2) 4:39 PM CST (12/2)
Length of Visible Light 10h 58m
Length of Day
10h 04m
Waning Crescent, 0% of the Moon is Illuminated
Dec 2
Waning Crescent
Dec 2
New
Dec 9
First Quarter
Dec 17
Full
Dec 25
Last Quarter

Hourly Weather History & Observations

Time (CST) Temp. Dew Point Humidity Pressure Visibility Wind Dir Wind Speed Gust Speed Precip Events Conditions
12:40 AM 53.6 °F 41.0 °F 62% 30.01 in 10.0 mi SSW 6.9 mph - N/A   Overcast
12:53 AM 52.0 °F 43.0 °F 71% 30.00 in 10.0 mi SW 6.9 mph - 0.00 in   Overcast
1:26 AM 51.8 °F 44.6 °F 76% 30.01 in 7.0 mi West 3.5 mph - 0.01 in Rain Light Rain
1:48 AM 50.0 °F 46.4 °F 87% 30.00 in 4.0 mi Calm Calm - 0.03 in Rain Light Rain
1:53 AM 50.0 °F 46.0 °F 86% 30.00 in 6.0 mi Calm Calm - 0.04 in Rain Light Rain
2:39 AM 48.2 °F 46.4 °F 93% 29.98 in 9.0 mi Calm Calm - 0.03 in Rain Light Rain
2:53 AM 50.0 °F 46.9 °F 89% 29.98 in 7.0 mi Calm Calm - 0.04 in Rain Light Rain
3:13 AM 48.2 °F 46.4 °F 93% 29.97 in 5.0 mi SE 3.5 mph - 0.01 in Rain Light Rain
3:17 AM 48.2 °F 48.2 °F 100% 29.97 in 5.0 mi Calm Calm - 0.01 in Rain Light Rain
3:26 AM 48.2 °F 48.2 °F 100% 29.96 in 2.5 mi SE 3.5 mph - 0.02 in Rain Light Rain
3:35 AM 50.0 °F 48.2 °F 94% 29.96 in 4.0 mi Calm Calm - 0.03 in Rain Light Rain
3:53 AM 50.0 °F 48.0 °F 93% 29.95 in 7.0 mi SSW 4.6 mph - 0.03 in Rain Light Rain
4:33 AM 50.0 °F 48.2 °F 94% 29.95 in 8.0 mi Calm Calm - 0.00 in   Overcast
4:53 AM 50.0 °F 48.0 °F 93% 29.94 in 9.0 mi Variable 3.5 mph - 0.00 in   Overcast
5:53 AM 50.0 °F 48.0 °F 93% 29.94 in 10.0 mi Calm Calm - N/A   Overcast
6:53 AM 50.0 °F 48.0 °F 93% 29.94 in 7.0 mi SE 3.5 mph - N/A   Overcast
7:53 AM 50.0 °F 48.0 °F 93% 29.94 in 4.0 mi Calm Calm - 0.03 in Rain Light Rain
8:04 AM 50.0 °F 48.2 °F 94% 29.94 in 2.5 mi Calm Calm - 0.01 in Rain Rain
8:20 AM 50.0 °F 48.2 °F 94% 29.94 in 5.0 mi SSE 4.6 mph - 0.02 in Rain Light Rain
8:44 AM 51.8 °F 48.2 °F 88% 29.93 in 8.0 mi SE 3.5 mph - 0.02 in   Overcast
8:53 AM 52.0 °F 48.9 °F 89% 29.94 in 8.0 mi South 3.5 mph - 0.02 in   Overcast
9:53 AM 53.1 °F 48.0 °F 83% 29.93 in 10.0 mi South 6.9 mph - N/A   Overcast
10:53 AM 54.0 °F 48.9 °F 83% 29.91 in 7.0 mi Calm Calm - 0.00 in   Overcast
11:53 AM 55.0 °F 50.0 °F 83% 29.88 in 9.0 mi South 4.6 mph - N/A   Overcast
12:53 PM 55.9 °F 51.1 °F 84% 29.85 in 9.0 mi South 4.6 mph - N/A   Overcast
1:53 PM 55.0 °F 52.0 °F 89% 29.83 in 5.0 mi ESE 3.5 mph - 0.00 in Rain Light Rain
2:42 PM 55.4 °F 51.8 °F 88% 29.83 in 1.8 mi SSE 3.5 mph - 0.02 in Rain Rain
2:53 PM 54.0 °F 52.0 °F 93% 29.82 in 2.0 mi SE 3.5 mph - 0.04 in Rain Light Rain
3:08 PM 53.6 °F 53.6 °F 100% 29.82 in 4.0 mi SE 3.5 mph - 0.00 in Rain Light Rain
3:53 PM 54.0 °F 52.0 °F 93% 29.81 in 6.0 mi Calm Calm - 0.00 in   Overcast
4:53 PM 54.0 °F 52.0 °F 93% 29.82 in 6.0 mi Calm Calm - N/A   Overcast
5:53 PM 54.0 °F 51.1 °F 90% 29.81 in 7.0 mi ESE 4.6 mph - N/A   Mostly Cloudy
6:53 PM 55.0 °F 50.0 °F 83% 29.81 in 10.0 mi SE 4.6 mph - N/A   Mostly Cloudy
7:53 PM 55.0 °F 51.1 °F 86% 29.82 in 9.0 mi Calm Calm - N/A   Overcast
8:53 PM 55.0 °F 51.1 °F 86% 29.82 in 9.0 mi Calm Calm - N/A   Mostly Cloudy
9:53 PM 55.0 °F 51.1 °F 86% 29.83 in 10.0 mi Calm Calm - 0.01 in   Overcast
10:53 PM 55.9 °F 51.1 °F 84% 29.83 in 10.0 mi Calm Calm - N/A   Mostly Cloudy
11:53 PM 55.0 °F 51.1 °F 86% 29.81 in 10.0 mi SE 4.6 mph - N/A   Scattered Clouds